Regional Weather Roundup
Issued by NWS Lake Charles, LA

Current Version | Previous Version | Text Only | Print | Product List | Glossary On
Versions: 1 2 3 4 5 6 7 8 9 10 11 12 13 14 15 16 17 18 19 20 21 22 23 24 25 26 27
000
ASUS44 KLCH 260310
RWRLCH
REGIONAL WEATHER ROUNDUP
NATIONAL WEATHER SERVICE LAKE CHARLES LA
1000 PM CDT TUE JUL 25 2017

Note: "fair" indicates few or no clouds below 12,000 feet with no
significant weather and/or obstructions to visibility.


ACROSS SOUTHEAST TEXAS

CITY           SKY/WX    TMP DP  RH WIND       PRES   REMARKS
BEAUMONT       CLOUDY    80  76  87 SE3       30.09R
BEAUMONT CITY  FAIR      82  76  84 MISG      30.10S
ORANGE         CLEAR     82  78  88 CALM      30.12R
JASPER           N/A     82  77  85 S3        30.12R
$$

ACROSS CENTRAL LOUISIANA

CITY           SKY/WX    TMP DP  RH WIND       PRES   REMARKS
LEESVILLE      CLEAR     79  74  83 S5        30.10R
FULLERTON      FAIR      76  73  91 CALM      30.08R
ALEXANDRIA INT CLEAR     77  73  87 S3        30.07R
ESLER FIELD    CLEAR     76  75  97 CALM      30.09R
DERIDDER       FAIR      80  78  95 CALM      30.12S
OAKDALE        CLEAR     77  75  95 S3        30.11S
OPELOUSAS      FAIR      76  76  98 SW3       30.10R
$$

ACROSS SOUTHWEST AND SOUTH CENTRAL LOUISIANA

CITY           SKY/WX    TMP DP  RH WIND       PRES   REMARKS
SULPHUR        NOT AVBL
LAKE CHARLES   CLEAR     81  77  88 SE3       30.10S
CHENNAULT INT  CLEAR     79  75  89 S5        30.10S
CAMERON PHI    PTCLDY    84  77  79 S7        30.10S
DEQUINCY       FAIR      77  76  95 CALM      30.11R
JENNINGS       FAIR      80  77  91 CALM      30.12R
LAFAYETTE      CLEAR     81  79  94 S3        30.11R
NEW IBERIA     CLOUDY    80  75  84 SW8       30.12R
ABBEVILLE      FAIR      79  79 100 CALM      30.13R
PATTERSON      CLEAR     78  75  90 CALM      30.12R
SALT POINT       N/A     84  75  74 VRB3      30.09S
$$

SELECTED SITES ACROSS THE REGION

CITY           SKY/WX    TMP DP  RH WIND       PRES   REMARKS
HOUSTON BUSH   MOCLDY    85  75  72 S9        30.08R
HOUSTON HOBBY  PTCLDY    83  73  72 SE5       30.09R
GALVESTON      CLOUDY    84  76  76 S21G26    30.11R
COLLEGE STAT   CLEAR     86  72  62 S10       30.07R
CONROE         CLEAR     83  77  82 SE9       30.09R
HUNTSVILLE     CLEAR     85  75  72 SE5       30.08R
LUFKIN         CLEAR     80  74  81 S6        30.08R
SHREVEPORT     CLEAR     81  72  74 S6        30.07S
MONROE         CLEAR     78  72  81 CALM      30.09R
NATCHEZ MS     CLEAR     77  74  90 S5        30.10F
BATON ROUGE    CLEAR     78  76  93 CALM      30.11R
N.O. INTL ARPT CLEAR     82  74  76 S3        30.11R
SLIDELL        CLEAR     78  75  90 CALM      30.11R
$$

MARINE REPORTS

STATION/POSITION TIME  SKY/WX   TEMP    WIND        PRES    VSBY
                                AIR SEA DIR/SP/G
                 (UTC)          (F)     (DEG/KT/KT) (MB)    (MI)
BUOY 30 S HIGH I 0150            86 86  150/ 12/ 14 1018.8
WVE H/P(F/S)=  2/ 7

SEA RIM ST PARK  0200            85     170/  7/ 10 1019.4R
PORT ARTHUR      0248            83 87  160/  4/  5 1019.6R
SABINE PASS N    0248            84 88  170/  6/  9 1020.8R
TEXAS POINT      NOT AVBL
CALCASIEU PASS   0248            85 85  200/  8/ 10 1018.6S
LK CHARLES BEACH 0248            83 87              1020.1R
MARSH ISLAND     NOT AVBL
FRESH WATER LOCK 0248            83 86  200/  4/  6 1019.4F
AMERADA PASS     0248            82 89   CALM  /  3 1019.3S
$$




USA.gov is the U.S. government's official web portal to all federal, state and local government web resources and services.